Racecast

AACPS Inter-County Meet #2

Broadneck High School · 5000m · Girls · Compiled · MD

137 runners from 2 divisions

These divisions were run separately. This is how their times compare, not how they finished — the places and scores below were never contested.

View full meet →

Team scores

Place Team Points 12345 67
1 Severna Park (MD) 29 1 4 5 8 11 12 16
2 Crofton (MD) 69 2 10 15 20 22 28 29
3 Broadneck (MD) 77 7 9 18 19 24 32 33
4 Arundel (MD) 109 14 21 23 25 26 27 31
5 South River (MD) 133 3 17 36 38 39 43 51
6 Old Mill Senior (MD) 184 13 30 44 48 49
7 Chesapeake-AA (MD) 192 34 35 40 41 42 45 46
8 Glen Burnie (MD) 192 6 37 47 50 52 55 56
9 Meade (MD) 281 53 54 57 58 59 60

Not scored, fewer than five finishers: North County (2), Northeast-AA (2), Annapolis (1), Southern-AA (1)

Results

Place Athlete Grade School Time Rating Points Actual race
1 Angelica Coleman 12 Severna Park (MD) 1 21:49.9 125.0 1 1
2 Myra Benbow 12 Crofton (MD) 1 22:44.0 120.0 2 1
3 Caylie Brown 12 South River (MD) 1 22:48.2 119.7 3 2
4 Reese Corey 9 Severna Park (MD) 2 23:06.2 118.1 4 2
5 Paige Klima 9 Severna Park (MD) 3 23:08.8 117.9 5 3
6 Lindsay Fernandez 12 Glen Burnie (MD) 1 23:09.9 117.8 6 4
7 Charlotte Crabtree 12 Broadneck (MD) 1 23:11.0 117.7 7 3
8 Avery Girton 9 Severna Park (MD) 4 23:11.4 117.7 8 5
9 Julia Simmons 9 Broadneck (MD) 2 23:11.6 117.6 9 4
10 Lily Huyer 10 Crofton (MD) 2 23:45.9 114.8 10 5
11 Parker Scott 9 Severna Park (MD) 5 23:51.2 114.4 11 6
12 Ava Manzolillo 9 Severna Park (MD) 6 23:51.6 114.3 12 7
13 Rebecca Miller 11 Old Mill Senior (MD) 1 23:52.6 114.3 13 8
14 Anna Gustin 10 Arundel (MD) 1 23:52.7 114.3 14 6
15 Madison O'Brien 10 Crofton (MD) 3 23:58.7 113.8 15 7
16 Sol Cingolani 11 Severna Park (MD) 7 23:59.2 113.8 16 9
17 Malia Etemad-far 10 Annapolis (MD) 1 24:02.0 113.5 8
18 Molly Killila 11 South River (MD) 2 24:06.0 113.2 17 9
19 Annabelle Hall 11 Broadneck (MD) 3 24:07.4 113.1 18 10
20 Alexa Johnson 10 Broadneck (MD) 4 24:07.7 113.1 19 11
21 Haeun Huskey 10 Severna Park (MD) 8 24:21.7 112.0 10
22 Julia Mauck 9 Severna Park (MD) 9 24:22.6 111.9 11
23 Maura Cronin 11 Severna Park (MD) 10 24:24.4 111.8 12
24 Emily Feldman 9 Severna Park (MD) 11 24:25.9 111.7 13
25 Katelyn Waters 9 Crofton (MD) 4 24:26.1 111.7 20 12
26 Libby Angelo 10 Arundel (MD) 2 24:28.2 111.5 21 13
27 Zoey Anton 11 Crofton (MD) 5 24:40.0 110.6 22 14
28 Cora Morrison 10 Arundel (MD) 3 24:48.6 110.0 23 15
29 Jasmine Joy 9 Broadneck (MD) 5 24:49.2 109.9 24 16
30 Anna Paquette 11 Arundel (MD) 4 24:56.3 109.4 25 17
31 Riley Pope 11 Arundel (MD) 5 24:56.5 109.4 26 18
32 Lila Watts 9 Arundel (MD) 6 24:56.6 109.4 27 19
33 Millie Knoepfle 11 Severna Park (MD) 12 25:00.3 109.1 14
34 Emily Sandel 9 Severna Park (MD) 13 25:06.4 108.7 15
35 Emily Macek 9 Crofton (MD) 6 25:06.5 108.7 28 20
36 Avery Khoshtinat 9 Crofton (MD) 7 25:12.1 108.3 29 21
37 Cora Goodier 9 Crofton (MD) 8 25:12.2 108.3 22
38 Kaleena Listman 9 Severna Park (MD) 14 25:15.0 108.1 16
39 Ivy Love 10 Old Mill Senior (MD) 2 25:17.2 107.9 30 17
40 Meghan Mette 11 Arundel (MD) 7 25:18.1 107.8 31 23
41 Madalyn Ochs 12 Arundel (MD) 8 25:18.8 107.8 24
42 Allison Bristol 9 Arundel (MD) 9 25:19.7 107.7 25
43 Charlotte Higgins 9 Crofton (MD) 9 25:21.8 107.6 26
44 Bianca Morales 9 Crofton (MD) 10 25:23.0 107.5 27
45 Sadie Mack 11 Severna Park (MD) 15 25:29.3 107.0 18
46 Ella Devaud 9 Severna Park (MD) 16 25:29.3 107.0 19
47 Austyn Karasiewicz 10 Crofton (MD) 11 25:46.0 105.9 28
48 Elisabeth Russell-Wood 11 Crofton (MD) 12 25:46.5 105.9 29
49 Michaela Carofano 9 Broadneck (MD) 6 25:47.5 105.8 32 30
50 Ryann Bahen 12 Broadneck (MD) 7 25:48.6 105.7 33 31
51 Nina Butler 10 North County (MO) 1 25:59.6 105.0 20
52 Brynn Williams 10 Severna Park (MD) 17 26:17.6 103.8 21
53 Giuliana Newton 11 Severna Park (MD) 18 26:20.1 103.6 22
54 Haylie Deters 11 Chesapeake-AA (MD) 1 26:21.3 103.5 34 23
55 Aubrey VanSickle 11 Chesapeake-AA (MD) 2 26:21.4 103.5 35 24
56 Julianna Montante 11 Severna Park (MD) 19 26:42.1 102.2 25
57 Varsha Bhandari 10 Crofton (MD) 13 26:46.0 101.9 32
58 Katherine Huyssoon 10 Crofton (MD) 14 26:50.2 101.7 33
59 Ella Marshall 11 Crofton (MD) 15 26:57.3 101.2 34
60 Ruby Whites 11 South River (MD) 3 27:02.1 100.9 36 35
61 Ruby Smallbone 11 Crofton (MD) 16 27:07.1 100.6 36
62 Olivia Patterson 9 Broadneck (MD) 8 27:09.3 100.5 37
63 Elena Jonker 9 Broadneck (MD) 9 27:12.3 100.3 38
64 Jeannette Manseau 11 Broadneck (MD) 10 27:13.2 100.2 39
65 Piper Bowman 9 Severna Park (MD) 20 27:14.1 100.2 26
66 Scarlet Torres 10 North County (MO) 2 27:18.4 99.9 27
67 Ava Burleson 11 Severna Park (MD) 21 27:21.8 99.7 28
68 Stella Miller 9 Severna Park (MD) 22 27:26.9 99.4 29
69 Karla Diaz Barrera 12 Glen Burnie (MD) 2 27:28.2 99.3 37 30
70 Nora Gerig 12 Severna Park (MD) 23 27:30.7 99.2 31
71 Zoe Souder 9 Severna Park (MD) 24 27:38.6 98.7 32
72 Madelyn Nauroth 10 Arundel (MD) 10 27:39.9 98.6 40
73 Victoria Bickel 9 South River (MD) 4 27:50.7 98.0 38 41
74 Evelyn Ingram 9 South River (MD) 5 27:51.8 97.9 39 42
75 Arianna Anderson 10 Arundel (MD) 11 27:52.3 97.9 43
76 Kayla Brengle-Kingsley 12 Chesapeake-AA (MD) 3 28:12.8 96.7 40 33
77 Lillian Hoskins 12 Chesapeake-AA (MD) 4 28:15.1 96.6 41 34
78 Sydney Wise 12 Severna Park (MD) 25 28:22.1 96.2 35
79 Madison Harris 11 Chesapeake-AA (MD) 5 28:23.7 96.1 42 36
80 Aimee Kim 10 Arundel (MD) 12 28:24.4 96.0 44
81 Elsa Turner 10 South River (MD) 6 28:26.6 95.9 43 45
82 Juliette Simpson 9 Broadneck (MD) 11 28:28.0 95.8 46
83 Elena Durkin 12 Broadneck (MD) 12 28:28.1 95.8 47
84 Anna Willis 11 Severna Park (MD) 26 28:28.7 95.8 37
85 Zoe Laque 9 Severna Park (MD) 27 28:35.3 95.4 38
86 Samantha Miller 11 Old Mill Senior (MD) 3 28:43.0 95.0 44 39
87 Arianna Haskell 10 Chesapeake-AA (MD) 6 28:44.7 94.9 45 40
88 Nina Travis 12 Arundel (MD) 13 28:59.0 94.1 48
89 Olivia Lawrence 9 Chesapeake-AA (MD) 7 29:05.4 93.8 46 41
90 Margaret Cochran 12 Chesapeake-AA (MD) 8 29:05.5 93.8 42
91 Maehla Nave 12 Chesapeake-AA (MD) 9 29:05.6 93.8 43
92 Hailee Stallings 11 Chesapeake-AA (MD) 10 29:05.7 93.8 44
93 Emily Bryant 12 Chesapeake-AA (MD) 11 29:06.2 93.8 45
94 Lily Wroten 10 Chesapeake-AA (MD) 12 29:06.4 93.7 46
95 Cadence Spaulding 10 Chesapeake-AA (MD) 13 29:06.5 93.7 47
96 Amelia Smith 9 Chesapeake-AA (MD) 14 29:07.4 93.7 48
97 Eden Githens 12 Chesapeake-AA (MD) 15 29:07.4 93.7 49
98 Haley Tolley 11 Glen Burnie (MD) 3 29:08.4 93.6 47 50
99 Elizabeth Lee 9 Arundel (MD) 14 29:09.9 93.5 49
100 Catherine Dearborn 12 Severna Park (MD) 28 29:12.5 93.4 51
101 Kayla Aninweke 11 Arundel (MD) 15 29:16.6 93.2 50
102 Precious Fakeye 10 Old Mill Senior (MD) 4 29:17.1 93.2 48 52
103 Eva Barrat 12 Broadneck (MD) 13 30:02.6 90.8 51
104 'Lilah' Elizabeth Couser 10 Broadneck (MD) 14 30:02.6 90.8 52
105 Preslie Havens 9 Severna Park (MD) 29 30:05.4 90.7 53
106 Eleanor Bower 10 Arundel (MD) 16 30:11.1 90.4 53
107 Catherine Gress 11 Crofton (MD) 17 30:14.9 90.2 54
108 Eva Smith 9 Broadneck (MD) 15 30:20.3 89.9 55
109 Sadie Whynock 11 Broadneck (MD) 16 30:20.8 89.9 56
110 Kalen Jackson 12 Arundel (MD) 17 30:25.0 89.7 57
111 Riley McGowan 12 Severna Park (MD) 30 30:31.2 89.4 54
112 Elise Rivera 11 Old Mill Senior (MD) 5 30:34.0 89.3 49 55
113 Gabriella White 9 Glen Burnie (MD) 4 31:07.1 87.7 50 56
114 Allison Hogan 12 Chesapeake-AA (MD) 16 31:10.2 87.5 57
115 Lily Hall 12 Chesapeake-AA (MD) 17 31:37.9 86.3 58
116 Abigail Wargo 12 Chesapeake-AA (MD) 18 31:39.6 86.2 59
117 Nancy Schurtz 11 Northeast-AA (MD) 1 31:49.9 85.7 60
118 Aniya Lemon 11 Northeast-AA (MD) 2 31:55.4 85.5 61
119 Fiona Baumann 11 South River (MD) 7 32:05.6 85.0 51 58
120 Lucy Saunders 9 Broadneck (MD) 17 32:14.3 84.6 59
121 Peyton Rivas 11 Broadneck (MD) 18 32:15.7 60
122 Kimberlin Orellana 12 Glen Burnie (MD) 5 32:20.2 84.4 52 62
123 Jocelyn Hackman 9 Chesapeake-AA (MD) 19 32:25.9 84.1 63
124 Reid Watkins 11 Southern-AA (MD) 1 32:56.8 82.8 61
125 Chloe Schmitt 9 Meade (MD) 1 33:12.3 82.2 53 62
126 Claire Muteteke 12 Chesapeake-AA (MD) 20 33:27.0 81.6 64
127 Ruby Chaudoin 9 Chesapeake-AA (MD) 21 34:13.8 79.7 65
128 Mackenzie Rogers 9 Chesapeake-AA (MD) 22 34:54.7 78.2 66
129 Jahmaira Rosado 9 Meade (MD) 2 35:16.0 77.4 54 63
130 Ella Kerrick 9 Glen Burnie (MD) 6 35:33.7 76.7 55 67
131 Jamie Hernandez 12 Glen Burnie (MD) 7 35:51.6 76.1 56 68
132 Dizra Smith 9 Meade (MD) 3 36:11.9 75.4 57 64
133 Valerie Ruano 11 Meade (MD) 4 36:56.5 73.9 58 65
134 Imani Jones 11 Meade (MD) 5 36:57.6 73.8 59 66
135 Erinsimone Hortman 9 Meade (MD) 6 37:07.2 73.5 60 67
136 Lilly Bohle 9 Glen Burnie (MD) 8 37:50.5 72.1 69
137 Theresa Barile 9 Arundel (MD) 18 45:24.7 60.1 68